Location: *
(48.8489°N, 2.3218°E)
Time: 13:53:25
(UTC+00:00)

ADEOS Rocket - Pass Details

Date: 23 August 2019
Orbit: 859 x 1306 km, 98.7° (Epoch: 20 September)

Event Time Altitude Azimuth Distance (km) Brightness Sun altitude
Rises 20:22:11 0° 14° (NNE) 3,580 6.3 -14.0°
Reaches altitude 10° 20:24:31 10° 14° (NNE) 2,678 5.6 -14.3°
Maximum altitude 20:30:32 87° 288° (WNW) 1,026 3.1 -15.1°
Drops below altitude 10° 20:37:13 10° 199° (SSW) 2,957 5.3 -16.0°
Sets 20:39:53 0° 199° (SSW) 3,977 6.0 -16.3°
